Vorticity
9 6 6 7 6 5 6 6 6 13 7 22 15 9 15 14 18 20 9 19 18 11 22 17 15 16 12 21 6 4 35 9 -8 7 4 23 7 16 12 14 15 12 14 13 18 19 5 15 17 11 9 5 -3 1
11 10 8 7 7 7 5 5 4 3 26 16 15 13 12 6 4 3 16 -2 6 16 20 23 18 15 13 17 11 -0 4 30 25 4 -6 8 8 10 3 11 16 23 13 13 16 23 9 17 13 22 6 11 41 9
12 11 9 8 7 6 4 5 11 17 19 12 8 8 6 6 8 3 10 1 -0 1 30 32 18 22 1 14 17 -9 17 -4 27 21 20 14 5 5 8 13 12 -25 11 1 22 23 17 27 18 22 15 1 -5 -2
12 12 12 8 7 5 8 9 6 22 14 7 11 12 8 10 2 25 0 11 7 -2 33 29 17 -1 20 21 33 8 10 12 24 10 27 17 6 10 13 13 8 2 -2 11 15 -2 4 21 19 35 14 -4 6 20
13 14 10 9 7 9 4 5 23 16 8 14 18 10 24 10 7 1 25 -0 15 -3 33 34 12 21 41 20 16 15 0 22 1 2 18 15 22 13 0 -8 -19 32 10 14 13 11 -7 23 10 32 -0 35 10 1
13 13 11 10 7 3 7 21 19 11 12 10 15 11 17 22 -10 9 21 10 -5 27 28 30 28 17 13 24 -0 -0 -2 -6 -2 10 11 23 -26 1 21 1 10 13 7 18 -6 46 9 -14 69 -2 39 -7 28 34
13 6 11 6 4 8 23 17 14 16 12 12 8 15 14 23 19 19 25 10 36 25 19 13 17 9 33 13 1 4 13 -9 8 10 11 -5 1 -3 3 12 26 14 13 -3 15 -3 38 10 -34 -11 33 16 -11 -13
10 10 6 5 8 25 16 15 10 4 6 15 10 14 13 25 28 22 26 22 13 11 20 25 15 10 18 14 7 9 8 -3 4 12 3 18 -9 -2 0 11 26 13 3 9 9 6 1 8 29 -1 21 29 5 20
9 10 9 14 27 15 14 13 6 3 4 9 15 18 24 26 19 16 17 15 17 19 18 20 21 22 32 23 14 22 9 -0 14 18 3 7 14 7 6 7 1 4 12 7 7 6 1 7 4 9 11 8 21 29
12 13 20 22 21 15 12 3 5 14 15 20 20 12 28 17 13 14 13 17 29 7 -1 8 -8 -3 -11 5 16 18 28 26 14 8 5 4 9 11 6 3 8 7 3 1 2 9 9 5 1 3 7 4 7 7
25 22 21 18 11 11 14 11 7 17 17 16 12 21 23 11 15 11 22 6 4 6 11 10 8 2 11 2 10 19 25 13 13 15 4 8 20 17 15 7 3 9 6 8 8 7 7 9 8 9 10 11 12 11
22 13 7 4 1 -0 9 14 21 19 10 20 9 21 19 11 11 17 7 -1 3 19 10 -5 24 2 7 3 2 -2 2 11 15 13 15 12 19 14 14 13 12 11 12 11 6 7 10 8 7 5 4 10 9 7
0 0 11 15 12 26 20 16 11 8 21 21 11 11 11 19 16 15 -1 7 6 4 7 4 3 10 2 2 1 5 5 5 6 12 16 9 10 12 13 14 17 20 23 25 19 14 9 8 10 15 12 7 5 7
25 22 18 -0 21 11 13 6 16 20 17 18 16 18 12 18 13 19 -0 1 5 -1 -6 1 8 6 8 13 6 9 0 14 11 7 8 10 11 17 18 18 14 15 16 17 19 20 18 17 17 16 14 14 14 15
36 39 28 22 16 14 5 16 20 9 12 17 13 4 21 24 22 24 0 -4 4 7 3 8 2 6 4 6 10 8 9 11 10 12 15 12 11 0 2 5 9 10 4 5 5 7 7 6 5 6 10 15 19 16
39 27 10 16 16 7 20 14 20 13 20 11 21 11 -2 12 14 27 17 -2 -4 -0 6 9 11 8 14 8 9 15 14 11 11 4 8 1 1 5 6 1 6 8 3 4 11 12 9 7 8 9 10 9 10 10
26 18 13 16 10 13 8 11 12 8 4 6 -2 10 8 17 18 16 16 16 14 20 14 8 6 6 8 13 15 15 16 12 19 18 4 1 7 11 11 11 8 8 9 9 10 10 8 7 8 5 5 7 10 12
12 14 18 21 13 1 3 5 13 13 -0 19 10 8 8 12 9 9 11 10 8 8 9 9 11 12 15 14 15 12 13 6 2 5 8 8 10 9 12 5 4 7 7 9 13 11 13 18 22 23 18 14 11 8
7 5 14 20 16 11 7 7 17 6 1 -1 5 11 14 15 8 5 3 11 11 13 18 19 24 9 14 13 7 2 0 7 8 10 12 11 10 5 4 7 13 16 17 18 18 15 9 5 6 6 6 6 6 7
10 13 4 1 4 6 8 11 6 3 4 6 1 10 5 14 16 17 19 23 19 16 12 8 7 5 2 6 6 6 10 12 8 5 5 11 19 18 15 14 11 8 7 8 8 8 9 10 9 8 8 8 8 8
7 9 12 13 8 11 9 11 12 15 17 20 13 15 21 18 19 14 7 5 4 6 6 7 6 5 6 12 15 9 6 6 16 16 7 7 8 9 10 10 12 12 10 8 7 6 7 7 7 7 6 7 9 11
2 5 3 3 6 11 11 13 14 17 14 19 16 15 10 5 3 6 5 8 11 14 16 14 13 10 7 5 10 16 12 7 6 6 6 6 7 10 10 8 10 9 9 9 8 6 4 4 7 10 11 12 10 9
9 7 6 9 11 14 15 13 15 18 13 8 5 5 3 2 7 11 13 12 8 7 7 8 8 12 12 8 6 7 7 7 6 4 4 6 7 7 8 8 10 8 4 2 3 9 14 16 13 10 11 14 18 23
10 9 10 8 13 16 10 12 9 8 6 5 6 7 7 11 13 10 10 8 10 14 14 10 7 7 7 7 5 4 4 4 6 6 6 6 7 8 13 12 5 3 10 18 17 12 9 11 14 21 27 31 29 27
18 16 19 22 24 18 16 15 14 8 7 5 9 11 11 8 9 12 17 11 7 6 8 6 6 7 8 8 9 11 12 13 12 13 13 15 17 10 5 1 15 18 13 9 10 15 19 28 32 29 24 20 17 16
26 26 29 28 27 24 20 17 14 12 14 14 12 10 9 16 12 8 6 9 10 8 4 4 10 10 10 10 10 9 7 9 11 13 13 8 5 4 15 17 12 9 10 16 22 30 30 25 20 16 14 14 14 13
11 20 24 21 20 18 16 15 13 11 10 10 13 14 7 7 7 8 3 11 6 7 8 10 11 4 4 5 5 6 7 10 13 11 6 3 11 18 13 9 9 13 21 27 30 23 18 15 15 15 14 13 14 14
7 9 13 20 17 14 11 12 15 15 10 7 7 8 9 4 5 5 8 2 4 3 4 5 5 5 4 5 5 6 9 12 10 6 4 13 17 11 8 10 18 24 28 24 18 18 18 17 15 15 16 16 13 10
7 5 6 7 7 8 8 10 11 7 7 7 7 6 1 6 2 6 5 6 3 4 3 3 4 7 7 6 6 9 11 10 7 4 13 15 9 8 11 20 25 26 20 17 20 20 20 18 16 13 10 9 11 12
14 13 8 8 8 8 9 11 5 7 4 4 5 7 8 9 7 4 3 3 4 6 4 2 6 10 8 8 8 11 10 8 4 14 14 8 9 11 23 26 25 20 14 16 15 14 13 11 10 11 12 12 17 18
3 5 10 14 9 6 5 4 5 6 6 7 6 6 5 5 4 4 4 2 4 9 5 3 8 11 10 8 10 10 7 5 16 13 7 9 13 22 24 23 19 14 14 16 14 13 13 12 11 14 19 17 12 10
6 5 5 7 11 6 6 5 5 6 8 6 5 6 6 5 5 5 5 5 5 8 4 5 11 10 10 11 11 7 5 16 11 6 9 13 22 25 23 18 13 15 16 15 13 9 11 17 19 16 15 13 10 9
5 5 6 5 10 16 9 7 5 6 6 6 6 5 6 4 4 5 8 4 5 6 6 10 10 11 11 11 6 8 16 10 6 9 13 21 25 23 17 14 15 16 16 11 10 16 18 17 16 15 13 12 10 10
Height
5435 5441 5447 5452 5456 5459 5461 5461 5460 5458 5455 5453 5451 5448 5447 5447 5447 5447 5446 5446 5446 5447 5448 5450 5453 5457 5462 5466 5470 5475 5479 5482 5485 5488 5492 5496 5500 5504 5509 5512 5515 5519 5522 5525 5527 5529 5534 5537 5541 5545 5549 5552 5555 5559
5423 5430 5436 5441 5446 5449 5451 5451 5450 5449 5447 5445 5444 5442 5443 5443 5443 5444 5443 5442 5443 5444 5446 5446 5449 5454 5457 5463 5467 5472 5478 5479 5481 5484 5490 5494 5498 5502 5507 5510 5513 5518 5520 5521 5524 5525 5527 5531 5535 5538 5545 5548 5551 5556
5412 5418 5425 5431 5435 5439 5441 5441 5441 5440 5439 5438 5439 5438 5438 5439 5438 5438 5439 5438 5439 5440 5440 5441 5445 5447 5454 5459 5464 5470 5474 5477 5480 5485 5487 5491 5496 5500 5504 5508 5510 5513 5518 5517 5519 5521 5523 5525 5528 5531 5537 5541 5543 5549
5400 5408 5414 5420 5425 5429 5431 5432 5432 5432 5432 5433 5433 5433 5433 5434 5434 5433 5432 5434 5434 5435 5436 5437 5439 5444 5447 5454 5458 5466 5471 5476 5478 5482 5484 5489 5494 5498 5502 5506 5510 5512 5513 5514 5516 5518 5520 5521 5523 5525 5531 5535 5538 5541
5390 5397 5404 5410 5415 5419 5421 5423 5424 5424 5426 5427 5427 5427 5428 5430 5430 5429 5429 5429 5430 5432 5431 5431 5436 5438 5443 5450 5458 5464 5470 5474 5477 5480 5484 5489 5493 5497 5501 5504 5506 5506 5510 5513 5514 5516 5518 5520 5521 5523 5526 5528 5530 5535
5378 5387 5395 5401 5406 5410 5412 5414 5416 5418 5420 5421 5421 5422 5423 5424 5425 5426 5424 5426 5427 5425 5426 5428 5433 5437 5443 5450 5457 5462 5467 5473 5477 5480 5484 5487 5491 5494 5493 5500 5503 5505 5508 5510 5513 5512 5514 5516 5517 5519 5522 5524 5526 5529
5370 5377 5386 5392 5397 5401 5404 5407 5410 5413 5415 5416 5416 5417 5418 5418 5419 5421 5423 5424 5423 5425 5426 5430 5434 5440 5444 5450 5457 5462 5468 5474 5477 5480 5482 5486 5490 5490 5493 5497 5500 5504 5507 5508 5509 5509 5511 5513 5514 5517 5517 5519 5520 5522
5363 5370 5377 5384 5389 5393 5397 5402 5405 5408 5410 5411 5412 5412 5412 5413 5415 5417 5418 5421 5424 5427 5430 5433 5438 5443 5449 5453 5458 5463 5468 5473 5476 5479 5482 5485 5489 5490 5492 5495 5497 5500 5503 5504 5505 5506 5507 5509 5511 5513 5513 5514 5514 5516
5358 5365 5371 5377 5382 5387 5393 5398 5401 5404 5406 5408 5409 5409 5410 5411 5413 5416 5420 5423 5426 5431 5433 5437 5441 5446 5451 5456 5460 5464 5469 5472 5476 5479 5481 5484 5487 5489 5491 5494 5495 5497 5499 5500 5501 5503 5504 5505 5507 5508 5508 5509 5510 5511
5353 5359 5365 5371 5377 5383 5389 5394 5397 5400 5402 5405 5406 5407 5409 5411 5415 5419 5423 5426 5429 5433 5437 5441 5445 5449 5452 5456 5461 5465 5468 5471 5475 5479 5480 5483 5485 5487 5489 5491 5492 5494 5496 5497 5497 5498 5499 5499 5500 5500 5501 5502 5503 5503
5349 5355 5362 5368 5375 5381 5386 5390 5394 5396 5399 5402 5403 5407 5410 5414 5418 5422 5426 5429 5433 5437 5440 5443 5447 5451 5455 5457 5461 5464 5467 5471 5473 5477 5479 5480 5482 5483 5484 5486 5486 5488 5490 5491 5491 5492 5492 5492 5492 5492 5492 5492 5493 5493
5348 5354 5361 5367 5373 5378 5383 5387 5390 5394 5398 5401 5405 5409 5413 5416 5420 5424 5428 5433 5436 5439 5442 5446 5449 5452 5455 5457 5461 5464 5466 5469 5471 5474 5475 5476 5477 5477 5479 5480 5481 5481 5481 5482 5483 5483 5483 5484 5484 5483 5482 5482 5482 5483
5347 5353 5359 5365 5371 5377 5382 5385 5389 5392 5396 5401 5405 5410 5415 5419 5422 5425 5431 5436 5440 5443 5446 5449 5452 5454 5457 5460 5461 5464 5466 5468 5470 5471 5472 5471 5472 5473 5474 5476 5477 5477 5476 5475 5475 5474 5473 5474 5474 5474 5474 5473 5472 5472
5342 5348 5356 5364 5371 5376 5380 5385 5389 5392 5397 5403 5407 5412 5417 5421 5426 5431 5435 5438 5442 5445 5448 5450 5453 5455 5458 5460 5461 5464 5466 5467 5468 5468 5468 5470 5470 5471 5471 5471 5471 5470 5470 5469 5469 5468 5467 5466 5465 5464 5463 5462 5462 5461
5337 5344 5354 5364 5371 5377 5381 5386 5390 5395 5400 5405 5411 5416 5420 5423 5426 5431 5435 5439 5442 5445 5448 5451 5453 5456 5458 5460 5461 5464 5465 5466 5466 5466 5467 5468 5468 5469 5468 5468 5467 5466 5465 5464 5462 5461 5460 5458 5457 5456 5454 5453 5451 5450
5341 5349 5359 5367 5374 5380 5386 5391 5395 5399 5405 5409 5414 5419 5423 5426 5428 5433 5437 5441 5444 5447 5449 5452 5453 5456 5458 5459 5461 5461 5463 5464 5464 5464 5465 5466 5465 5465 5464 5463 5462 5461 5460 5458 5456 5455 5453 5451 5449 5447 5445 5443 5441 5439
5356 5359 5365 5373 5380 5386 5391 5397 5401 5405 5410 5414 5419 5423 5425 5428 5432 5436 5440 5444 5446 5448 5450 5452 5453 5455 5457 5457 5458 5459 5460 5461 5461 5462 5462 5462 5461 5460 5459 5458 5456 5454 5453 5450 5448 5446 5444 5442 5440 5437 5435 5432 5430 5428
5367 5370 5376 5382 5388 5393 5397 5401 5405 5409 5414 5418 5422 5425 5429 5432 5435 5438 5441 5443 5445 5446 5448 5450 5452 5454 5455 5456 5457 5458 5459 5459 5460 5460 5459 5458 5456 5455 5453 5451 5449 5447 5445 5442 5439 5437 5434 5432 5429 5426 5424 5421 5419 5416
5378 5381 5384 5389 5393 5397 5401 5405 5410 5414 5418 5422 5424 5427 5430 5433 5436 5438 5441 5443 5445 5446 5448 5449 5451 5453 5455 5456 5457 5458 5458 5458 5457 5456 5454 5452 5450 5449 5446 5443 5441 5438 5435 5432 5430 5428 5425 5423 5420 5417 5414 5411 5408 5404
5386 5388 5391 5395 5398 5401 5405 5409 5413 5417 5420 5423 5426 5429 5432 5434 5436 5438 5440 5442 5444 5447 5449 5451 5452 5454 5455 5456 5456 5455 5454 5453 5452 5451 5449 5447 5444 5442 5439 5436 5433 5431 5428 5425 5422 5419 5416 5413 5409 5406 5402 5398 5394 5390
5391 5394 5397 5400 5403 5406 5409 5412 5415 5418 5421 5424 5426 5429 5432 5434 5437 5440 5442 5444 5447 5448 5450 5451 5452 5453 5453 5453 5453 5452 5451 5450 5448 5446 5443 5441 5438 5436 5432 5429 5426 5422 5419 5416 5412 5409 5405 5401 5397 5393 5388 5383 5378 5372
5395 5398 5401 5404 5407 5409 5412 5414 5417 5419 5423 5425 5428 5431 5434 5437 5439 5442 5444 5446 5447 5448 5449 5450 5450 5451 5451 5451 5450 5449 5447 5445 5443 5441 5438 5435 5432 5428 5424 5421 5417 5413 5409 5404 5400 5395 5390 5385 5379 5373 5368 5363 5358 5352
5399 5401 5403 5405 5408 5411 5414 5415 5418 5421 5424 5428 5431 5433 5436 5438 5440 5442 5444 5445 5447 5448 5449 5449 5449 5449 5449 5448 5447 5446 5444 5441 5439 5435 5432 5429 5425 5421 5416 5412 5407 5402 5397 5392 5387 5382 5376 5370 5364 5358 5352 5346 5340 5334
5399 5401 5404 5406 5409 5412 5415 5417 5420 5423 5426 5429 5432 5434 5436 5438 5441 5443 5444 5445 5446 5446 5447 5447 5447 5447 5446 5445 5444 5442 5439 5436 5433 5430 5425 5421 5417 5412 5407 5402 5396 5390 5385 5379 5373 5367 5361 5354 5347 5341 5335 5329 5324 5319
5401 5403 5404 5405 5408 5411 5414 5418 5421 5424 5427 5430 5432 5435 5437 5439 5441 5442 5443 5444 5445 5446 5446 5446 5446 5445 5444 5442 5440 5437 5434 5430 5426 5422 5417 5412 5407 5402 5397 5391 5385 5378 5371 5364 5358 5351 5344 5338 5331 5326 5322 5318 5313 5309
5401 5402 5404 5405 5408 5411 5415 5418 5421 5424 5427 5430 5433 5435 5437 5439 5441 5442 5443 5444 5445 5445 5445 5445 5444 5442 5440 5438 5435 5431 5427 5422 5417 5412 5407 5402 5396 5391 5384 5378 5371 5365 5357 5349 5341 5334 5329 5324 5320 5316 5312 5308 5305 5301
5404 5405 5406 5408 5411 5414 5417 5420 5423 5426 5429 5431 5433 5435 5438 5439 5441 5442 5442 5443 5443 5443 5443 5442 5440 5437 5433 5430 5426 5423 5418 5414 5409 5404 5399 5392 5385 5378 5372 5365 5358 5351 5343 5336 5329 5323 5319 5315 5311 5307 5303 5300 5296 5292
5409 5410 5411 5414 5415 5418 5420 5423 5426 5428 5430 5433 5435 5437 5438 5439 5441 5441 5441 5442 5441 5440 5438 5435 5433 5430 5426 5423 5419 5414 5410 5404 5399 5394 5388 5381 5374 5368 5360 5353 5345 5337 5330 5324 5319 5314 5310 5306 5303 5299 5295 5292 5288 5284
5412 5414 5417 5418 5420 5423 5424 5427 5429 5431 5433 5434 5436 5437 5438 5439 5440 5440 5439 5438 5436 5434 5432 5429 5427 5424 5420 5416 5411 5405 5400 5395 5390 5384 5377 5370 5364 5357 5349 5341 5333 5326 5321 5316 5311 5306 5302 5298 5295 5291 5288 5284 5281 5277
5415 5417 5419 5421 5423 5425 5427 5429 5430 5432 5433 5434 5436 5437 5437 5437 5437 5436 5435 5433 5431 5429 5427 5424 5420 5416 5412 5407 5402 5397 5391 5386 5380 5374 5366 5359 5352 5344 5336 5329 5323 5317 5312 5308 5303 5299 5295 5291 5288 5284 5280 5276 5273 5269
5416 5418 5420 5421 5423 5425 5427 5428 5430 5431 5432 5433 5434 5434 5434 5434 5433 5432 5430 5429 5426 5423 5420 5417 5413 5408 5404 5399 5394 5388 5382 5377 5369 5362 5355 5348 5341 5333 5325 5319 5314 5309 5305 5300 5296 5292 5288 5284 5280 5276 5272 5268 5265 5261
5417 5418 5419 5421 5422 5424 5425 5427 5428 5429 5430 5430 5430 5431 5430 5430 5428 5427 5425 5422 5419 5416 5413 5409 5404 5399 5395 5389 5384 5378 5373 5366 5360 5353 5346 5338 5330 5323 5317 5311 5306 5302 5297 5293 5288 5284 5280 5276 5271 5268 5264 5261 5257 5254
5415 5416 5418 5419 5420 5421 5422 5423 5424 5425 5426 5426 5426 5425 5425 5424 5422 5420 5418 5415 5412 5408 5404 5400 5395 5391 5386 5381 5375 5369 5362 5356 5349 5342 5335 5327 5320 5314 5309 5304 5299 5294 5289 5285 5281 5276 5272 5268 5264 5260 5257 5253 5249 5245